Вернуться в каталог

STARLINK-35893

АктивенСвязьVLEO
NORAD 66565·PAYLOAD·🇺🇸 United States

Запущен Nov 21, 2025 с Cape Canaveral Space Force Station

Loading…

Ближайшие Пролёты (ближайшие 24 часа)

TLE

СвежийSource: CelesTrak SupGP

Эпоха: Sep 14, 2026, 23:07 UTC

1 66565C 25268J   26257.96368056 -.00020595  00000+0 -74588-3 0  2570
2 66565  43.0035 357.9412 0001498 272.8813 283.6917 15.27592433    17

Отслеживайте STARLINK-35893 в реальном времени с AllMySat

Download on the App Store